User: anonymous   Login
Location: Caltech
(34.1382°N, 118.1253°W)
Time: 08:49:42
(UTC-08:00)
Language:

Cosmos 2322 - Orbit

View from above orbital plane
View from above orbital plane
View from above satellite
View from above satellite

Ground track
Ground track

The orbit data is extracted from the following two-line orbital elements,

1 23704U 95058A   15057.47418138 -.00000104  00000-0 -29889-4 0  9994
2 23704 070.9904 007.8939 0012623 287.5609 215.4197 14.13312740996913
Epoch (UTC): 26 February 2015 11:22:49
Eccentricity: 0.0012623
inclination: 70.9904°
perigee height: 839 km
apogee height: 857 km
right ascension of ascending node: 7.8939°
argument of perigee: 287.5609°
revolutions per day: 14.13312740
mean anomaly at epoch: 215.4197°
orbit number at epoch: 99691

The dashed part of the orbit path shows where the satellite is in the earth's shadow,  

DLR